McMinnville, OR

10:53 PM PDT on March 23, 2017 (GMT -0700)
McMinnville Municipal

Weather History for KMMV - January, 2014

Change the Weather History Date:

Sunday, January 12, 2014

  Actual Average Record
Temperature  
Mean Temperature 49 °F 40 °F  
Max Temperature 55 °F 47 °F 69 °F (1928)
Min Temperature 43 °F 34 °F 8 °F (1937)
Degree Days  
Heating Degree Days 16 24  
Month to date heating degree days 268 300  
Since 1 July heating degree days 2308 2305  
Cooling Degree Days 0 0  
Month to date cooling degree days 0 0  
Year to date cooling degree days 0 0  
Moisture  
Dew Point 48 °F    
Average Humidity 86    
Maximum Humidity 100    
Minimum Humidity 71    
Precipitation  
Precipitation 0.36 in 0.20 in 1.98 in (1936)
Month to date precipitation 2.09 2.63  
Year to date precipitation 2.09 2.63  
Sea Level Pressure  
Sea Level Pressure 30.29 in    
Wind  
Wind Speed 12 mph (SSW)    
Max Wind Speed 18 mph    
Max Gust Speed 24 mph    
Visibility 9 miles    
Events Rain    
T = Trace of Precipitation, MM = Missing Value Source: NWS Daily Summary

Daily Weather History Graph

Daily Weather History Graph

Search for Another Location

Airport or City:

Trip Planner

Search our weather history database for the weather conditions in past years. The results will help you decide how hot, cold, wet, or windy it might be!

Date:

Astronomy

Jan. 12, 2014 Rise Set
Actual Time 7:49 AM PST 4:53 PM PST
Civil Twilight 7:16 AM PST 5:26 PM PST
Nautical Twilight 6:39 AM PST 6:02 PM PST
Astronomical Twilight 6:04 AM PST 6:38 PM PST
Moon 2:26 PM PST (1/12) 4:51 AM PST (1/12)
Length of Visible Light 10h 09m
Length of Day
9h 03m
Waxing Gibbous, 90% of the Moon is Illuminated
Jan 12
Waxing Gibbous
Jan 15
Full
Jan 23
Last Quarter
Jan 30
New
Feb 6
First Quarter

Hourly Weather History & Observations

Time (PST) Temp. Windchill Dew Point Humidity Pressure Visibility Wind Dir Wind Speed Gust Speed Precip Events Conditions
12:53 AM 44.1 °F 38.1 °F 41.0 °F 89% 30.10 in 10.0 mi South 11.5 mph - 0.00 in   Mostly Cloudy
1:53 AM 45.0 °F 39.7 °F 41.0 °F 86% 30.13 in 10.0 mi SSW 10.4 mph - N/A   Partly Cloudy
2:53 AM 46.0 °F 40.2 °F 41.0 °F 83% 30.16 in 10.0 mi SSW 12.7 mph - 0.00 in   Overcast
3:53 AM 45.0 °F 38.5 °F 41.0 °F 86% 30.17 in 10.0 mi SSW 13.8 mph - N/A   Overcast
4:53 AM 44.1 °F 40.8 °F 43.0 °F 96% 30.19 in 6.0 mi SSW 5.8 mph - 0.04 in Rain Light Rain
5:53 AM 45.0 °F 38.9 °F 43.0 °F 93% 30.19 in 6.0 mi SSW 12.7 mph - 0.07 in Rain Rain
6:53 AM 45.0 °F 38.5 °F 43.0 °F 93% 30.19 in 8.0 mi SSW 13.8 mph - 0.08 in Rain Light Rain
7:53 AM 45.0 °F 37.9 °F 44.1 °F 97% 30.21 in 10.0 mi South 16.1 mph 23.0 mph 0.05 in Rain Light Rain
8:53 AM 46.0 °F 39.6 °F 45.0 °F 96% 30.22 in 6.0 mi South 15.0 mph - 0.07 in Rain Light Rain
9:22 AM 46.0 °F 39.9 °F 46.0 °F 100% 30.23 in 7.0 mi South 13.8 mph - 0.03 in Rain Light Rain
9:53 AM 46.9 °F - 46.9 °F 100% 30.25 in 5.0 mi SSW 15.0 mph - 0.04 in Rain Light Rain
10:38 AM 48.0 °F - 48.0 °F 100% 30.27 in 5.0 mi SSW 16.1 mph - 0.00 in Rain Light Rain
10:53 AM 48.0 °F - 48.0 °F 100% 30.27 in 9.0 mi SSW 12.7 mph - 0.01 in   Overcast
11:08 AM 48.9 °F - 48.9 °F 100% 30.28 in 10.0 mi SSW 13.8 mph - N/A   Overcast
11:53 AM 51.1 °F - 51.1 °F 100% 30.27 in 10.0 mi SSW 16.1 mph - N/A   Overcast
12:16 PM 52.0 °F - 52.0 °F 100% 30.27 in 10.0 mi SSW 12.7 mph - N/A   Mostly Cloudy
12:27 PM 53.1 °F - 53.1 °F 100% 30.27 in 10.0 mi SSW 16.1 mph - N/A   Overcast
12:37 PM 53.1 °F - 53.1 °F 100% 30.27 in 10.0 mi SW 15.0 mph - N/A   Mostly Cloudy
12:53 PM 53.1 °F - 53.1 °F 100% 30.27 in 10.0 mi SSW 15.0 mph - N/A   Mostly Cloudy
1:06 PM 54.0 °F - 54.0 °F 100% 30.27 in 10.0 mi SSW 11.5 mph - N/A   Scattered Clouds
1:13 PM 55.0 °F - 55.0 °F 100% 30.27 in 10.0 mi SW 10.4 mph - N/A   Mostly Cloudy
1:53 PM 55.0 °F - 51.1 °F 86% 30.28 in 10.0 mi SW 8.1 mph - N/A   Partly Cloudy
2:53 PM 54.0 °F - 50.0 °F 86% 30.31 in 10.0 mi SW 13.8 mph - N/A   Partly Cloudy
3:53 PM 52.0 °F - 50.0 °F 93% 30.33 in 10.0 mi SW 13.8 mph - N/A   Mostly Cloudy
4:53 PM 51.1 °F - 48.9 °F 92% 30.35 in 10.0 mi SW 15.0 mph - N/A   Overcast
5:53 PM 51.1 °F - 48.9 °F 92% 30.37 in 10.0 mi SW 13.8 mph - N/A   Overcast
6:53 PM 51.1 °F - 48.9 °F 92% 30.40 in 10.0 mi SW 11.5 mph - N/A   Overcast
7:53 PM 50.0 °F - 48.9 °F 96% 30.42 in 10.0 mi SW 8.1 mph - N/A   Overcast
8:53 PM 50.0 °F - 48.9 °F 96% 30.45 in 10.0 mi SW 9.2 mph - N/A   Overcast
9:53 PM 50.0 °F - 48.0 °F 93% 30.48 in 10.0 mi SW 8.1 mph - N/A   Overcast
10:53 PM 50.0 °F - 48.0 °F 93% 30.49 in 10.0 mi SW 9.2 mph - N/A   Overcast
11:53 PM 50.0 °F - 46.9 °F 89% 30.51 in 10.0 mi SW 8.1 mph - N/A   Overcast